Hourly Weather Rudevichi

Today, 15 April, Thursday

Time Temperature Precipitation Wind Pressure Humidity
00:00 +6°C° 0.5 mm 4 mps 737 mmHg 97%
01:00 +6°C° 0.5 mm 4 mps 737 mmHg 96%
02:00 +5°C° 0 mm 4 mps 737 mmHg 96%
03:00 +5°C° 0.1 mm 4 mps 737 mmHg 96%
04:00 +5°C° 0.1 mm 4 mps 737 mmHg 95%
05:00 +5°C° 0.1 mm 3 mps 737 mmHg 95%
06:00 +5°C° 0 mm 4 mps 737 mmHg 94%
07:00 +5°C° 0 mm 4 mps 738 mmHg 94%
08:00 +5°C° 0 mm 4 mps 738 mmHg 93%
09:00 +5°C° 0.1 mm 4 mps 738 mmHg 91%
10:00 +5°C° 0.1 mm 4 mps 737 mmHg 89%
11:00 +6°C° 0.1 mm 5 mps 737 mmHg 88%
12:00 +5°C° 1.1 mm 5 mps 737 mmHg 90%
13:00 +3°C° 1.1 mm 5 mps 737 mmHg 92%
14:00 +3°C° 1.1 mm 4 mps 737 mmHg 94%
15:00 +3°C° 0.7 mm 5 mps 737 mmHg 94%
16:00 +3°C° 0.7 mm 5 mps 737 mmHg 94%
17:00 +3°C° 0.7 mm 5 mps 736 mmHg 94%
18:00 +3°C° 0.6 mm 5 mps 736 mmHg 94%
19:00 +3°C° 0.6 mm 5 mps 736 mmHg 95%
20:00 +3°C° 0.6 mm 5 mps 736 mmHg 95%
21:00 +3°C° 0.3 mm 5 mps 736 mmHg 95%
22:00 +3°C° 0.3 mm 5 mps 736 mmHg 95%
23:00 +3°C° 0.3 mm 5 mps 735 mmHg 95%

Tomorrow, 16 April, Friday

Time Temperature Precipitation Wind Pressure Humidity
00:00 +3°C° 0 mm 5 mps 735 mmHg 96%
01:00 +3°C° 0 mm 5 mps 735 mmHg 96%
02:00 +3°C° 0 mm 5 mps 735 mmHg 97%
03:00 +5°C° 0.1 mm 5 mps 735 mmHg 96%
04:00 +5°C° 0.1 mm 4 mps 735 mmHg 96%
05:00 +6°C° 0.1 mm 4 mps 735 mmHg 96%
06:00 +7°C° 0 mm 4 mps 735 mmHg 93%
07:00 +7°C° 0 mm 4 mps 735 mmHg 90%
08:00 +8°C° 0 mm 4 mps 735 mmHg 87%
09:00 +8°C° 0.3 mm 4 mps 735 mmHg 85%
10:00 +10°C° 0.3 mm 4 mps 736 mmHg 83%
11:00 +10°C° 0.3 mm 4 mps 736 mmHg 80%
12:00 +10°C° 0.6 mm 5 mps 736 mmHg 76%
13:00 +12°C° 0.6 mm 5 mps 736 mmHg 72%
14:00 +11°C° 0.6 mm 6 mps 736 mmHg 68%
15:00 +11°C° 0.2 mm 6 mps 736 mmHg 67%
16:00 +12°C° 0.2 mm 5 mps 736 mmHg 67%
17:00 +12°C° 0.2 mm 5 mps 736 mmHg 66%
18:00 +10°C° 0 mm 4 mps 737 mmHg 73%
19:00 +9°C° 0 mm 3 mps 737 mmHg 80%
20:00 +8°C° 0 mm 3 mps 737 mmHg 87%
21:00 +7°C° 0 mm 3 mps 738 mmHg 89%
22:00 +6°C° 0 mm 4 mps 738 mmHg 91%
23:00 +6°C° 0 mm 4 mps 738 mmHg 93%

Day after tomorrow, 17 April, Saturday

Time Temperature Precipitation Wind Pressure Humidity
00:00 +5°C° 0.1 mm 4 mps 738 mmHg 94%
01:00 +5°C° 0.1 mm 3 mps 738 mmHg 95%
02:00 +5°C° 0.1 mm 3 mps 738 mmHg 96%
03:00 +4°C° 0 mm 3 mps 739 mmHg 96%
04:00 +4°C° 0 mm 3 mps 739 mmHg 96%
05:00 +4°C° 0 mm 3 mps 739 mmHg 96%
06:00 +5°C° 0 mm 3 mps 740 mmHg 93%
07:00 +7°C° 0 mm 3 mps 740 mmHg 90%
08:00 +7°C° 0 mm 3 mps 740 mmHg 87%
09:00 +8°C° 0 mm 3 mps 741 mmHg 85%
10:00 +8°C° 0 mm 3 mps 741 mmHg 83%
11:00 +9°C° 0 mm 3 mps 741 mmHg 80%
12:00 +10°C° 0 mm 3 mps 741 mmHg 72%
13:00 +12°C° 0 mm 3 mps 741 mmHg 63%
14:00 +13°C° 0 mm 4 mps 741 mmHg 55%
15:00 +13°C° 0 mm 3 mps 741 mmHg 57%
16:00 +13°C° 0 mm 3 mps 741 mmHg 59%
17:00 +13°C° 0 mm 3 mps 741 mmHg 61%
18:00 +11°C° 0.4 mm 3 mps 741 mmHg 70%
19:00 +10°C° 0.4 mm 3 mps 741 mmHg 79%
20:00 +8°C° 0.4 mm 4 mps 741 mmHg 88%
21:00 +8°C° 0.3 mm 4 mps 741 mmHg 89%
22:00 +9°C° 0.3 mm 3 mps 741 mmHg 91%
23:00 +8°C° 0.3 mm 3 mps 741 mmHg 93%

18 April, Sunday

Time Temperature Precipitation Wind Pressure Humidity
00:00 +7°C° 0.3 mm 4 mps 741 mmHg 92%
01:00 +7°C° 0.3 mm 4 mps 741 mmHg 92%
02:00 +7°C° 0.3 mm 4 mps 741 mmHg 91%
03:00 +7°C° 0 mm 4 mps 741 mmHg 91%
04:00 +6°C° 0 mm 4 mps 741 mmHg 92%
05:00 +5°C° 0 mm 4 mps 741 mmHg 92%
06:00 +6°C° 0 mm 5 mps 741 mmHg 88%
07:00 +7°C° 0 mm 5 mps 741 mmHg 85%
08:00 +7°C° 0 mm 5 mps 741 mmHg 82%
09:00 +9°C° 0 mm 5 mps 741 mmHg 78%
10:00 +10°C° 0 mm 5 mps 741 mmHg 74%
11:00 +11°C° 0 mm 6 mps 741 mmHg 70%
12:00 +12°C° 0 mm 5 mps 742 mmHg 71%
13:00 +11°C° 0 mm 4 mps 742 mmHg 72%
14:00 +11°C° 0 mm 4 mps 742 mmHg 74%
15:00 +11°C° 0 mm 4 mps 742 mmHg 75%
16:00 +11°C° 0 mm 4 mps 742 mmHg 76%
17:00 +11°C° 0 mm 3 mps 742 mmHg 77%
18:00 +10°C° 0 mm 3 mps 742 mmHg 78%
19:00 +10°C° 0 mm 3 mps 742 mmHg 79%
20:00 +10°C° 0 mm 3 mps 743 mmHg 80%
21:00 +9°C° 0 mm 3 mps 743 mmHg 81%
22:00 +9°C° 0 mm 3 mps 743 mmHg 82%
23:00 +9°C° 0 mm 2 mps 743 mmHg 83%

19 April, Monday

Time Temperature Precipitation Wind Pressure Humidity
00:00 +8°C° 0 mm 2 mps 743 mmHg 85%
01:00 +7°C° 0 mm 2 mps 743 mmHg 87%
02:00 +7°C° 0 mm 2 mps 743 mmHg 89%
03:00 +7°C° 0 mm 2 mps 743 mmHg 87%
04:00 +7°C° 0 mm 2 mps 743 mmHg 84%
05:00 +7°C° 0 mm 2 mps 743 mmHg 82%
06:00 +8°C° 0 mm 3 mps 743 mmHg 81%
07:00 +8°C° 0 mm 3 mps 743 mmHg 79%
08:00 +9°C° 0 mm 3 mps 743 mmHg 77%
09:00 +10°C° 0 mm 4 mps 743 mmHg 68%
10:00 +10°C° 0 mm 5 mps 743 mmHg 59%
11:00 +13°C° 0 mm 6 mps 743 mmHg 50%
12:00 +13°C° 0 mm 6 mps 743 mmHg 50%
13:00 +13°C° 0 mm 5 mps 743 mmHg 50%
14:00 +13°C° 0 mm 5 mps 742 mmHg 50%
15:00 +12°C° 0 mm 5 mps 742 mmHg 54%
16:00 +12°C° 0 mm 5 mps 742 mmHg 57%
17:00 +10°C° 0 mm 6 mps 742 mmHg 61%
18:00 +9°C° 0 mm 5 mps 742 mmHg 64%
19:00 +8°C° 0 mm 4 mps 742 mmHg 67%
20:00 +8°C° 0 mm 3 mps 742 mmHg 70%
21:00 +8°C° 0 mm 3 mps 742 mmHg 71%
22:00 +7°C° 0 mm 4 mps 742 mmHg 73%
23:00 +6°C° 0 mm 4 mps 742 mmHg 75%

20 April, Tuesday

Time Temperature Precipitation Wind Pressure Humidity
00:00 +6°C° 0 mm 4 mps 742 mmHg 76%
01:00 +6°C° 0 mm 4 mps 742 mmHg 78%
02:00 +5°C° 0 mm 4 mps 741 mmHg 79%
03:00 +5°C° 0 mm 4 mps 741 mmHg 81%
04:00 +5°C° 0 mm 4 mps 741 mmHg 82%
05:00 +4°C° 0 mm 4 mps 741 mmHg 84%
06:00 +5°C° 0 mm 5 mps 741 mmHg 79%
07:00 +6°C° 0 mm 5 mps 741 mmHg 74%
08:00 +7°C° 0 mm 5 mps 741 mmHg 70%
09:00 +8°C° 0 mm 6 mps 740 mmHg 64%
10:00 +9°C° 0 mm 6 mps 740 mmHg 58%
11:00 +10°C° 0 mm 6 mps 740 mmHg 52%
12:00 +10°C° 0 mm 6 mps 739 mmHg 49%
13:00 +11°C° 0 mm 6 mps 739 mmHg 47%
14:00 +12°C° 0 mm 7 mps 739 mmHg 44%
15:00 +11°C° 0 mm 6 mps 738 mmHg 46%
16:00 +11°C° 0 mm 6 mps 738 mmHg 47%
17:00 +10°C° 0 mm 6 mps 738 mmHg 49%
18:00 +9°C° 0 mm 5 mps 738 mmHg 52%
19:00 +7°C° 0 mm 4 mps 738 mmHg 55%
20:00 +5°C° 0 mm 4 mps 738 mmHg 59%
21:00 +5°C° 0 mm 3 mps 738 mmHg 61%
22:00 +4°C° 0 mm 3 mps 737 mmHg 64%
23:00 +3°C° 0 mm 3 mps 737 mmHg 67%
Show more